Time,TemperatureF,DewpointF,PressureIn,WindDirection,WindDirectionDegrees,WindSpeedMPH,WindSpeedGustMPH,Humidity,HourlyPrecipIn,Conditions,Clouds,dailyrainin,SoftwareType,DateUTC
2013-06-10 00:00:00,72.6,61.8,29.81,NNE,16,0.0,2.0,69,0.00,,,0.00,LWC2 V0.39 B123,2013-06-10 06:00:00,
2013-06-10 00:05:00,72.6,61.8,29.81,NW,311,1.0,2.0,69,0.00,,,0.00,LWC2 V0.39 B123,2013-06-10 06:05:00,
2013-06-10 00:10:00,72.7,61.9,29.81,West,277,1.0,1.0,69,0.00,,,0.00,LWC2 V0.39 B123,2013-06-10 06:10:00,
2013-06-10 00:15:00,72.6,61.4,29.81,South,172,0.0,2.0,68,0.00,,,0.00,LWC2 V0.39 B123,2013-06-10 06:15:00,
2013-06-10 00:20:00,72.6,61.8,29.82,East,89,1.0,2.0,69,0.00,,,0.00,LWC2 V0.39 B123,2013-06-10 06:20:00,
2013-06-10 00:25:00,72.4,62.0,29.82,South,181,2.0,3.0,70,0.00,,,0.00,LWC2 V0.39 B123,2013-06-10 06:25:00,
2013-06-10 00:30:00,72.5,62.1,29.81,WSW,249,1.0,3.0,70,0.00,,,0.00,LWC2 V0.39 B123,2013-06-10 06:30:00,
2013-06-10 00:35:00,72.5,62.1,29.81,WNW,301,0.0,3.0,70,0.00,,,0.00,LWC2 V0.39 B123,2013-06-10 06:35:00,
2013-06-10 00:40:00,72.4,62.0,29.81,WNW,291,1.0,4.0,70,0.00,,,0.00,LWC2 V0.39 B123,2013-06-10 06:40:00,
2013-06-10 00:45:00,72.3,62.4,29.81,WNW,285,0.0,4.0,71,0.00,,,0.00,LWC2 V0.39 B123,2013-06-10 06:45:00,
2013-06-10 00:50:00,72.1,62.6,29.81,SW,224,2.0,2.0,72,0.00,,,0.00,LWC2 V0.39 B123,2013-06-10 06:50:00,
2013-06-10 00:55:00,72.0,62.5,29.81,NW,318,1.0,1.0,72,0.00,,,0.00,LWC2 V0.39 B123,2013-06-10 06:55:00,
2013-06-10 01:00:00,71.7,62.6,29.81,NW,322,0.0,1.0,73,0.00,,,0.00,LWC2 V0.39 B123,2013-06-10 07:00:00,
2013-06-10 01:05:00,71.6,62.9,29.81,WNW,297,1.0,1.0,74,0.00,,,0.00,LWC2 V0.39 B123,2013-06-10 07:05:00,
2013-06-10 01:10:00,71.4,62.7,29.81,West,271,2.0,2.0,74,0.00,,,0.00,LWC2 V0.39 B123,2013-06-10 07:10:00,
2013-06-10 01:15:00,71.2,62.9,29.81,NW,314,1.0,2.0,75,0.00,,,0.00,LWC2 V0.39 B123,2013-06-10 07:15:00,
2013-06-10 01:20:00,71.1,63.1,29.81,East,79,1.0,1.0,76,0.00,,,0.00,LWC2 V0.39 B123,2013-06-10 07:20:00,
2013-06-10 01:25:00,70.9,62.9,29.81,NNE,12,1.0,2.0,76,0.00,,,0.00,LWC2 V0.39 B123,2013-06-10 07:25:00,
2013-06-10 01:30:00,70.7,63.1,29.81,SSW,195,0.0,2.0,77,0.00,,,0.00,LWC2 V0.39 B123,2013-06-10 07:30:00,
2013-06-10 01:35:00,70.5,62.9,29.81,WNW,297,1.0,2.0,77,0.00,,,0.00,LWC2 V0.39 B123,2013-06-10 07:35:00,
2013-06-10 01:40:00,70.5,63.3,29.81,NW,314,0.0,1.0,78,0.00,,,0.00,LWC2 V0.39 B123,2013-06-10 07:40:00,
2013-06-10 01:45:00,70.4,63.2,29.81,NNE,22,1.0,1.0,78,0.00,,,0.00,LWC2 V0.39 B123,2013-06-10 07:45:00,
2013-06-10 01:50:00,70.3,63.1,29.81,WNW,285,2.0,2.0,78,0.00,,,0.00,LWC2 V0.39 B123,2013-06-10 07:50:00,
2013-06-10 01:55:00,70.1,63.3,29.82,NNW,344,0.0,1.0,79,0.00,,,0.00,LWC2 V0.39 B123,2013-06-10 07:55:00,
2013-06-10 02:00:00,69.9,63.4,29.82,WNW,300,1.0,2.0,80,0.00,,,0.00,LWC2 V0.39 B123,2013-06-10 08:00:00,
2013-06-10 02:05:00,69.8,63.3,29.82,WSW,238,0.0,2.0,80,0.00,,,0.00,LWC2 V0.39 B123,2013-06-10 08:05:00,
2013-06-10 02:10:00,69.8,63.3,29.82,NW,315,0.0,1.0,80,0.00,,,0.00,LWC2 V0.39 B123,2013-06-10 08:10:00,
2013-06-10 02:15:00,69.8,63.3,29.81,WNW,286,1.0,1.0,80,0.00,,,0.00,LWC2 V0.39 B123,2013-06-10 08:15:00,
2013-06-10 02:20:00,69.8,63.3,29.81,NW,312,1.0,1.0,80,0.00,,,0.00,LWC2 V0.39 B123,2013-06-10 08:20:00,
2013-06-10 02:25:00,69.9,63.8,29.82,NW,326,1.0,2.0,81,0.00,,,0.00,LWC2 V0.39 B123,2013-06-10 08:25:00,
2013-06-10 02:30:00,69.9,63.8,29.82,NNW,340,1.0,1.0,81,0.00,,,0.00,LWC2 V0.39 B123,2013-06-10 08:30:00,
2013-06-10 02:35:00,69.9,63.8,29.82,WSW,249,0.0,2.0,81,0.00,,,0.00,LWC2 V0.39 B123,2013-06-10 08:35:00,
2013-06-10 02:40:00,69.8,63.7,29.82,SW,215,0.0,1.0,81,0.00,,,0.00,LWC2 V0.39 B123,2013-06-10 08:40:00,
2013-06-10 02:45:00,69.8,63.7,29.82,NW,322,0.0,2.0,81,0.00,,,0.00,LWC2 V0.39 B123,2013-06-10 08:45:00,
2013-06-10 02:50:00,69.9,63.8,29.82,NW,314,1.0,2.0,81,0.00,,,0.00,LWC2 V0.39 B123,2013-06-10 08:50:00,
2013-06-10 02:55:00,70.0,63.9,29.82,WNW,289,1.0,2.0,81,0.00,,,0.00,LWC2 V0.39 B123,2013-06-10 08:55:00,
2013-06-10 03:00:00,70.0,63.9,29.82,NNW,345,0.0,1.0,81,0.00,,,0.00,LWC2 V0.39 B123,2013-06-10 09:00:00,
2013-06-10 03:05:00,70.0,64.2,29.82,WNW,288,1.0,2.0,82,0.00,,,0.00,LWC2 V0.39 B123,2013-06-10 09:05:00,
2013-06-10 03:10:00,69.9,64.1,29.82,NNW,338,0.0,1.0,82,0.00,,,0.00,LWC2 V0.39 B123,2013-06-10 09:10:00,
2013-06-10 03:15:00,70.0,64.2,29.82,NW,316,1.0,2.0,82,0.00,,,0.00,LWC2 V0.39 B123,2013-06-10 09:15:00,
2013-06-10 03:20:00,70.1,64.3,29.82,NW,315,1.0,3.0,82,0.00,,,0.00,LWC2 V0.39 B123,2013-06-10 09:20:00,
2013-06-10 03:25:00,70.3,64.5,29.82,North,356,1.0,1.0,82,0.00,,,0.00,LWC2 V0.39 B123,2013-06-10 09:25:00,
2013-06-10 03:30:00,70.3,64.5,29.82,WNW,297,2.0,2.0,82,0.00,,,0.00,LWC2 V0.39 B123,2013-06-10 09:30:00,
2013-06-10 03:35:00,70.3,64.5,29.82,WNW,300,1.0,1.0,82,0.00,,,0.00,LWC2 V0.39 B123,2013-06-10 09:35:00,
2013-06-10 03:40:00,70.2,64.4,29.82,North,9,0.0,1.0,82,0.00,,,0.00,LWC2 V0.39 B123,2013-06-10 09:40:00,
2013-06-10 03:45:00,70.1,64.3,29.82,NNW,336,1.0,1.0,82,0.00,,,0.00,LWC2 V0.39 B123,2013-06-10 09:45:00,
2013-06-10 03:50:00,70.1,64.3,29.82,SSW,204,1.0,1.0,82,0.00,,,0.00,LWC2 V0.39 B123,2013-06-10 09:50:00,
2013-06-10 03:55:00,70.0,64.6,29.82,WNW,300,1.0,2.0,83,0.00,,,0.00,LWC2 V0.39 B123,2013-06-10 09:55:00,
2013-06-10 04:00:00,70.1,64.7,29.82,NW,314,0.0,1.0,83,0.00,,,0.00,LWC2 V0.39 B123,2013-06-10 10:00:00,
2013-06-10 04:05:00,70.0,64.6,29.82,NW,310,1.0,1.0,83,0.00,,,0.00,LWC2 V0.39 B123,2013-06-10 10:05:00,
2013-06-10 04:10:00,70.1,64.7,29.82,NW,308,0.0,2.0,83,0.00,,,0.00,LWC2 V0.39 B123,2013-06-10 10:10:00,
2013-06-10 04:15:00,70.1,64.7,29.83,NW,325,1.0,1.0,83,0.00,,,0.00,LWC2 V0.39 B123,2013-06-10 10:15:00,
2013-06-10 04:20:00,70.0,64.6,29.83,NW,305,1.0,1.0,83,0.00,,,0.00,LWC2 V0.39 B123,2013-06-10 10:20:00,
2013-06-10 04:25:00,70.0,64.9,29.82,NW,304,0.0,0.0,84,0.00,,,0.00,LWC2 V0.39 B123,2013-06-10 10:25:00,
2013-06-10 04:30:00,70.0,64.9,29.83,NW,304,1.0,1.0,84,0.00,,,0.00,LWC2 V0.39 B123,2013-06-10 10:30:00,
2013-06-10 04:35:00,70.1,65.0,29.82,WNW,290,0.0,3.0,84,0.00,,,0.00,LWC2 V0.39 B123,2013-06-10 10:35:00,
2013-06-10 04:40:00,70.3,65.2,29.83,NW,309,1.0,2.0,84,0.00,,,0.00,LWC2 V0.39 B123,2013-06-10 10:40:00,
2013-06-10 04:45:00,70.5,65.4,29.83,NW,326,1.0,1.0,84,0.00,,,0.00,LWC2 V0.39 B123,2013-06-10 10:45:00,
2013-06-10 04:50:00,70.6,65.2,29.83,North,352,0.0,2.0,83,0.00,,,0.00,LWC2 V0.39 B123,2013-06-10 10:50:00,
2013-06-10 04:55:00,70.8,65.4,29.83,NW,321,0.0,1.0,83,0.00,,,0.00,LWC2 V0.39 B123,2013-06-10 10:55:00,
2013-06-10 05:00:00,70.9,65.5,29.83,WSW,250,1.0,2.0,83,0.00,,,0.00,LWC2 V0.39 B123,2013-06-10 11:00:00,
2013-06-10 05:05:00,71.1,65.7,29.83,West,262,1.0,2.0,83,0.00,,,0.00,LWC2 V0.39 B123,2013-06-10 11:05:00,
2013-06-10 05:10:00,71.2,65.4,29.83,WNW,293,1.0,1.0,82,0.00,,,0.00,LWC2 V0.39 B123,2013-06-10 11:10:00,
2013-06-10 05:15:00,71.3,65.5,29.83,North,1,1.0,4.0,82,0.00,,,0.00,LWC2 V0.39 B123,2013-06-10 11:15:00,
2013-06-10 05:20:00,71.5,65.7,29.83,SE,127,1.0,4.0,82,0.00,,,0.00,LWC2 V0.39 B123,2013-06-10 11:20:00,
2013-06-10 05:25:00,71.5,65.7,29.83,South,188,0.0,3.0,82,0.00,,,0.00,LWC2 V0.39 B123,2013-06-10 11:25:00,
2013-06-10 05:30:00,71.3,65.5,29.84,NW,314,3.0,3.0,82,0.00,,,0.00,LWC2 V0.39 B123,2013-06-10 11:30:00,
2013-06-10 05:35:00,71.1,65.7,29.84,WNW,284,1.0,1.0,83,0.00,,,0.00,LWC2 V0.39 B123,2013-06-10 11:35:00,
2013-06-10 05:40:00,70.9,65.8,29.84,NW,306,0.0,2.0,84,0.00,,,0.00,LWC2 V0.39 B123,2013-06-10 11:40:00,
2013-06-10 05:45:00,70.9,65.8,29.84,WNW,297,2.0,3.0,84,0.00,,,0.00,LWC2 V0.39 B123,2013-06-10 11:45:00,
2013-06-10 05:50:00,70.8,65.7,29.84,WNW,294,1.0,2.0,84,0.00,,,0.00,LWC2 V0.39 B123,2013-06-10 11:50:00,
2013-06-10 05:55:00,70.6,65.9,29.84,WNW,294,1.0,2.0,85,0.00,,,0.00,LWC2 V0.39 B123,2013-06-10 11:55:00,
2013-06-10 06:00:00,70.6,65.9,29.84,NW,316,1.0,2.0,85,0.00,,,0.00,LWC2 V0.39 B123,2013-06-10 12:00:00,
2013-06-10 06:05:00,70.7,66.0,29.84,NNW,338,0.0,2.0,85,0.00,,,0.00,LWC2 V0.39 B123,2013-06-10 12:05:00,
2013-06-10 06:10:00,71.1,66.4,29.84,NW,307,0.0,1.0,85,0.00,,,0.00,LWC2 V0.39 B123,2013-06-10 12:10:00,
2013-06-10 06:15:00,71.5,66.7,29.84,NW,316,0.0,2.0,85,0.00,,,0.00,LWC2 V0.39 B123,2013-06-10 12:15:00,
2013-06-10 06:20:00,71.8,66.7,29.84,WNW,295,1.0,2.0,84,0.00,,,0.00,LWC2 V0.39 B123,2013-06-10 12:20:00,
2013-06-10 06:25:00,71.9,66.8,29.85,West,270,1.0,4.0,84,0.00,,,0.00,LWC2 V0.39 B123,2013-06-10 12:25:00,
2013-06-10 06:30:00,72.0,66.9,29.85,WNW,286,1.0,1.0,84,0.00,,,0.00,LWC2 V0.39 B123,2013-06-10 12:30:00,
2013-06-10 06:35:00,72.2,67.4,29.85,NW,304,1.0,3.0,85,0.00,,,0.00,LWC2 V0.39 B123,2013-06-10 12:35:00,
2013-06-10 06:40:00,72.6,67.8,29.85,NNW,328,3.0,3.0,85,0.00,,,0.00,LWC2 V0.39 B123,2013-06-10 12:40:00,
2013-06-10 06:45:00,73.2,68.1,29.86,West,262,1.0,2.0,84,0.00,,,0.00,LWC2 V0.39 B123,2013-06-10 12:45:00,
2013-06-10 06:50:00,73.8,68.3,29.86,WSW,253,2.0,4.0,83,0.00,,,0.00,LWC2 V0.39 B123,2013-06-10 12:50:00,
2013-06-10 06:55:00,74.4,68.5,29.86,WSW,253,2.0,3.0,82,0.00,,,0.00,LWC2 V0.39 B123,2013-06-10 12:55:00,
2013-06-10 07:00:00,74.9,69.0,29.86,North,356,2.0,3.0,82,0.00,,,0.00,LWC2 V0.39 B123,2013-06-10 13:00:00,
2013-06-10 07:05:00,75.5,68.9,29.86,East,101,2.0,3.0,80,0.00,,,0.00,LWC2 V0.39 B123,2013-06-10 13:05:00,
2013-06-10 07:10:00,76.0,69.4,29.86,SSE,149,1.0,4.0,80,0.00,,,0.00,LWC2 V0.39 B123,2013-06-10 13:10:00,
2013-06-10 07:15:00,76.7,69.7,29.86,South,172,1.0,2.0,79,0.00,,,0.00,LWC2 V0.39 B123,2013-06-10 13:15:00,
2013-06-10 07:20:00,77.4,70.0,29.86,West,269,3.0,5.0,78,0.00,,,0.00,LWC2 V0.39 B123,2013-06-10 13:20:00,
2013-06-10 07:25:00,77.9,70.1,29.86,West,273,1.0,2.0,77,0.00,,,0.00,LWC2 V0.39 B123,2013-06-10 13:25:00,
2013-06-10 07:30:00,78.6,71.1,29.86,NNW,336,3.0,3.0,78,0.00,,,0.00,LWC2 V0.39 B123,2013-06-10 13:30:00,
2013-06-10 07:35:00,79.1,70.1,29.86,SSE,150,1.0,5.0,74,0.00,,,0.00,LWC2 V0.39 B123,2013-06-10 13:35:00,
2013-06-10 07:40:00,79.7,70.3,29.86,NW,320,3.0,5.0,73,0.00,,,0.00,LWC2 V0.39 B123,2013-06-10 13:40:00,
2013-06-10 07:45:00,80.2,70.7,29.86,NW,321,2.0,2.0,73,0.00,,,0.00,LWC2 V0.39 B123,2013-06-10 13:45:00,
2013-06-10 07:50:00,80.8,70.5,29.86,SE,125,0.0,4.0,71,0.00,,,0.00,LWC2 V0.39 B123,2013-06-10 13:50:00,
2013-06-10 07:55:00,81.0,70.3,29.86,WSW,248,3.0,9.0,70,0.00,,,0.00,LWC2 V0.39 B123,2013-06-10 13:55:00,
2013-06-10 08:00:00,81.2,70.9,29.86,WNW,287,1.0,2.0,71,0.00,,,0.00,LWC2 V0.39 B123,2013-06-10 14:00:00,
2013-06-10 08:05:00,81.4,70.7,29.86,WNW,286,1.0,5.0,70,0.00,,,0.00,LWC2 V0.39 B123,2013-06-10 14:05:00,
2013-06-10 08:10:00,81.7,71.4,29.87,NNW,330,1.0,2.0,71,0.00,,,0.00,LWC2 V0.39 B123,2013-06-10 14:10:00,
2013-06-10 08:15:00,81.9,71.1,29.87,NNW,339,2.0,3.0,70,0.00,,,0.00,LWC2 V0.39 B123,2013-06-10 14:15:00,
2013-06-10 08:20:00,82.1,70.5,29.87,WNW,300,3.0,5.0,68,0.00,,,0.00,LWC2 V0.39 B123,2013-06-10 14:20:00,
2013-06-10 08:25:00,81.9,71.1,29.87,NW,317,1.0,3.0,70,0.00,,,0.00,LWC2 V0.39 B123,2013-06-10 14:25:00,
2013-06-10 08:30:00,82.3,70.7,29.87,SSE,156,1.0,3.0,68,0.00,,,0.00,LWC2 V0.39 B123,2013-06-10 14:30:00,
2013-06-10 08:35:00,82.7,71.5,29.87,WNW,288,1.0,3.0,69,0.00,,,0.00,LWC2 V0.39 B123,2013-06-10 14:35:00,
2013-06-10 08:40:00,82.8,71.6,29.87,NNE,23,1.0,3.0,69,0.00,,,0.00,LWC2 V0.39 B123,2013-06-10 14:40:00,
2013-06-10 08:45:00,83.2,71.5,29.87,NNE,31,1.0,2.0,68,0.00,,,0.00,LWC2 V0.39 B123,2013-06-10 14:45:00,
2013-06-10 08:50:00,83.3,71.2,29.86,West,274,1.0,5.0,67,0.00,,,0.00,LWC2 V0.39 B123,2013-06-10 14:50:00,
2013-06-10 08:55:00,83.6,71.5,29.86,WNW,290,1.0,3.0,67,0.00,,,0.00,LWC2 V0.39 B123,2013-06-10 14:55:00,
2013-06-10 09:00:00,83.7,71.5,29.86,NNW,338,1.0,3.0,67,0.00,,,0.00,LWC2 V0.39 B123,2013-06-10 15:00:00,
2013-06-10 09:05:00,83.8,71.2,29.86,NW,318,1.0,4.0,66,0.00,,,0.00,LWC2 V0.39 B123,2013-06-10 15:05:00,
2013-06-10 09:10:00,83.9,71.3,29.86,WNW,283,0.0,3.0,66,0.00,,,0.00,LWC2 V0.39 B123,2013-06-10 15:10:00,
2013-06-10 09:15:00,84.5,72.7,29.86,South,190,2.0,3.0,68,0.00,,,0.00,LWC2 V0.39 B123,2013-06-10 15:15:00,
2013-06-10 09:20:00,84.9,72.7,29.86,SSW,210,1.0,6.0,67,0.00,,,0.00,LWC2 V0.39 B123,2013-06-10 15:20:00,
2013-06-10 09:25:00,85.0,72.3,29.86,SW,214,3.0,4.0,66,0.00,,,0.00,LWC2 V0.39 B123,2013-06-10 15:25:00,
2013-06-10 09:30:00,84.8,71.7,29.86,SSW,205,4.0,4.0,65,0.00,,,0.00,LWC2 V0.39 B123,2013-06-10 15:30:00,
2013-06-10 09:35:00,85.1,72.0,29.86,WNW,286,2.0,4.0,65,0.00,,,0.00,LWC2 V0.39 B123,2013-06-10 15:35:00,
2013-06-10 09:40:00,85.3,72.6,29.86,SSE,155,1.0,3.0,66,0.00,,,0.00,LWC2 V0.39 B123,2013-06-10 15:40:00,
2013-06-10 09:45:00,85.8,73.1,29.86,NW,316,1.0,3.0,66,0.00,,,0.00,LWC2 V0.39 B123,2013-06-10 15:45:00,
2013-06-10 09:50:00,86.1,73.4,29.85,NNW,327,0.0,1.0,66,0.00,,,0.00,LWC2 V0.39 B123,2013-06-10 15:50:00,
2013-06-10 09:55:00,86.5,72.8,29.85,West,280,2.0,5.0,64,0.00,,,0.00,LWC2 V0.39 B123,2013-06-10 15:55:00,
2013-06-10 10:00:00,86.5,73.3,29.85,WSW,254,1.0,4.0,65,0.00,,,0.00,LWC2 V0.39 B123,2013-06-10 16:00:00,
2013-06-10 10:05:00,86.6,72.5,29.85,NW,319,1.0,5.0,63,0.00,,,0.00,LWC2 V0.39 B123,2013-06-10 16:05:00,
2013-06-10 10:10:00,86.2,73.0,29.85,SSE,149,2.0,5.0,65,0.00,,,0.00,LWC2 V0.39 B123,2013-06-10 16:10:00,
2013-06-10 10:15:00,86.3,73.1,29.85,South,183,2.0,5.0,65,0.00,,,0.00,LWC2 V0.39 B123,2013-06-10 16:15:00,
2013-06-10 10:20:00,86.7,73.0,29.85,NNE,12,1.0,2.0,64,0.00,,,0.00,LWC2 V0.39 B123,2013-06-10 16:20:00,
2013-06-10 10:25:00,86.8,72.7,29.85,South,173,3.0,6.0,63,0.00,,,0.00,LWC2 V0.39 B123,2013-06-10 16:25:00,
2013-06-10 10:30:00,87.2,73.0,29.85,NE,54,1.0,3.0,63,0.00,,,0.00,LWC2 V0.39 B123,2013-06-10 16:30:00,
2013-06-10 10:35:00,87.5,72.8,29.85,SSW,201,4.0,7.0,62,0.00,,,0.00,LWC2 V0.39 B123,2013-06-10 16:35:00,
2013-06-10 10:40:00,87.7,73.0,29.85,SW,224,1.0,4.0,62,0.00,,,0.00,LWC2 V0.39 B123,2013-06-10 16:40:00,
2013-06-10 10:45:00,88.3,74.1,29.85,SE,127,2.0,3.0,63,0.00,,,0.00,LWC2 V0.39 B123,2013-06-10 16:45:00,
2013-06-10 10:50:00,88.5,73.8,29.85,NNW,337,2.0,4.0,62,0.00,,,0.00,LWC2 V0.39 B123,2013-06-10 16:50:00,
2013-06-10 10:55:00,88.6,73.4,29.84,South,173,3.0,4.0,61,0.00,,,0.00,LWC2 V0.39 B123,2013-06-10 16:55:00,
2013-06-10 11:00:00,89.2,74.0,29.84,SSW,198,2.0,5.0,61,0.00,,,0.00,LWC2 V0.39 B123,2013-06-10 17:00:00,
2013-06-10 11:05:00,89.3,74.0,29.84,WNW,301,1.0,5.0,61,0.00,,,0.00,LWC2 V0.39 B123,2013-06-10 17:05:00,
2013-06-10 11:10:00,89.4,73.1,29.84,WNW,296,1.0,3.0,59,0.00,,,0.00,LWC2 V0.39 B123,2013-06-10 17:10:00,
2013-06-10 11:15:00,89.7,74.9,29.84,SSE,156,1.0,2.0,62,0.00,,,0.00,LWC2 V0.39 B123,2013-06-10 17:15:00,
2013-06-10 11:20:00,90.0,73.2,29.84,NW,304,5.0,7.0,58,0.00,,,0.00,LWC2 V0.39 B123,2013-06-10 17:20:00,
2013-06-10 11:25:00,90.2,74.4,29.84,SSE,157,1.0,4.0,60,0.00,,,0.00,LWC2 V0.39 B123,2013-06-10 17:25:00,
2013-06-10 11:30:00,90.5,74.2,29.83,SE,142,2.0,5.0,59,0.00,,,0.00,LWC2 V0.39 B123,2013-06-10 17:30:00,
2013-06-10 11:35:00,90.8,73.9,29.83,SW,222,5.0,6.0,58,0.00,,,0.00,LWC2 V0.39 B123,2013-06-10 17:35:00,
2013-06-10 11:40:00,91.2,75.3,29.83,South,175,5.0,5.0,60,0.00,,,0.00,LWC2 V0.39 B123,2013-06-10 17:40:00,
2013-06-10 11:45:00,91.4,74.5,29.83,North,349,3.0,6.0,58,0.00,,,0.00,LWC2 V0.39 B123,2013-06-10 17:45:00,
2013-06-10 11:50:00,91.4,72.9,29.83,NW,316,2.0,5.0,55,0.00,,,0.00,LWC2 V0.39 B123,2013-06-10 17:50:00,
2013-06-10 11:55:00,91.6,73.6,29.83,SSE,148,2.0,5.0,56,0.00,,,0.00,LWC2 V0.39 B123,2013-06-10 17:55:00,
2013-06-10 12:00:00,91.8,73.8,29.83,WSW,257,2.0,3.0,56,0.00,,,0.00,LWC2 V0.39 B123,2013-06-10 18:00:00,
2013-06-10 12:05:00,91.9,72.3,29.83,NE,44,3.0,5.0,53,0.00,,,0.00,LWC2 V0.39 B123,2013-06-10 18:05:00,
2013-06-10 12:10:00,92.0,72.4,29.83,South,169,4.0,6.0,53,0.00,,,0.00,LWC2 V0.39 B123,2013-06-10 18:10:00,
2013-06-10 12:15:00,92.4,72.7,29.83,NNW,331,2.0,5.0,53,0.00,,,0.00,LWC2 V0.39 B123,2013-06-10 18:15:00,
2013-06-10 12:20:00,92.6,74.0,29.83,NW,318,1.0,6.0,55,0.00,,,0.00,LWC2 V0.39 B123,2013-06-10 18:20:00,
2013-06-10 12:25:00,92.8,72.0,29.83,SE,131,2.0,5.0,51,0.00,,,0.00,LWC2 V0.39 B123,2013-06-10 18:25:00,
2013-06-10 12:30:00,92.9,72.6,29.82,NE,46,3.0,6.0,52,0.00,,,0.00,LWC2 V0.39 B123,2013-06-10 18:30:00,
2013-06-10 12:35:00,92.9,71.5,29.82,NW,314,2.0,6.0,50,0.00,,,0.00,LWC2 V0.39 B123,2013-06-10 18:35:00,
2013-06-10 12:40:00,92.7,72.4,29.82,West,266,2.0,4.0,52,0.00,,,0.00,LWC2 V0.39 B123,2013-06-10 18:40:00,
2013-06-10 12:45:00,93.0,72.1,29.81,SSW,198,2.0,4.0,51,0.00,,,0.00,LWC2 V0.39 B123,2013-06-10 18:45:00,
2013-06-10 12:50:00,93.2,73.5,29.81,South,179,2.0,8.0,53,0.00,,,0.00,LWC2 V0.39 B123,2013-06-10 18:50:00,
2013-06-10 12:55:00,93.3,73.0,29.81,NNW,331,3.0,4.0,52,0.00,,,0.00,LWC2 V0.39 B123,2013-06-10 18:55:00,
2013-06-10 13:00:00,93.3,73.0,29.81,WSW,252,3.0,5.0,52,0.00,,,0.00,LWC2 V0.39 B123,2013-06-10 19:00:00,
2013-06-10 13:05:00,93.6,72.7,29.81,NNW,330,0.0,2.0,51,0.00,,,0.00,LWC2 V0.39 B123,2013-06-10 19:05:00,
2013-06-10 13:10:00,93.6,72.7,29.81,WNW,288,2.0,5.0,51,0.00,,,0.00,LWC2 V0.39 B123,2013-06-10 19:10:00,
2013-06-10 13:15:00,93.8,73.5,29.81,ENE,62,1.0,3.0,52,0.00,,,0.00,LWC2 V0.39 B123,2013-06-10 19:15:00,
2013-06-10 13:20:00,94.0,73.6,29.81,West,276,2.0,6.0,52,0.00,,,0.00,LWC2 V0.39 B123,2013-06-10 19:20:00,
2013-06-10 13:25:00,94.3,72.8,29.81,NNW,330,1.0,5.0,50,0.00,,,0.00,LWC2 V0.39 B123,2013-06-10 19:25:00,
2013-06-10 13:30:00,94.2,72.7,29.81,WNW,303,4.0,6.0,50,0.00,,,0.00,LWC2 V0.39 B123,2013-06-10 19:30:00,
2013-06-10 13:35:00,93.9,73.6,29.80,SSW,211,3.0,8.0,52,0.00,,,0.00,LWC2 V0.39 B123,2013-06-10 19:35:00,
2013-06-10 13:40:00,94.4,75.7,29.80,NW,318,2.0,3.0,55,0.00,,,0.00,LWC2 V0.39 B123,2013-06-10 19:40:00,
2013-06-10 13:45:00,94.2,72.1,29.80,South,187,6.0,10.0,49,0.00,,,0.00,LWC2 V0.39 B123,2013-06-10 19:45:00,
2013-06-10 13:50:00,94.1,72.6,29.80,WNW,287,3.0,4.0,50,0.00,,,0.00,LWC2 V0.39 B123,2013-06-10 19:50:00,
2013-06-10 13:55:00,94.0,71.9,29.80,SW,235,2.0,8.0,49,0.00,,,0.00,LWC2 V0.39 B123,2013-06-10 19:55:00,
2013-06-10 14:00:00,94.1,71.4,29.80,SW,225,6.0,10.0,48,0.00,,,0.00,LWC2 V0.39 B123,2013-06-10 20:00:00,
2013-06-10 14:05:00,94.1,72.0,29.79,SE,141,1.0,6.0,49,0.00,,,0.00,LWC2 V0.39 B123,2013-06-10 20:05:00,
2013-06-10 14:10:00,94.3,73.3,29.80,NW,318,3.0,8.0,51,0.00,,,0.00,LWC2 V0.39 B123,2013-06-10 20:10:00,
2013-06-10 14:15:00,94.4,71.6,29.80,WNW,295,3.0,4.0,48,0.00,,,0.00,LWC2 V0.39 B123,2013-06-10 20:15:00,
2013-06-10 14:20:00,94.2,70.2,29.80,WNW,289,1.0,5.0,46,0.00,,,0.00,LWC2 V0.39 B123,2013-06-10 20:20:00,
2013-06-10 14:25:00,94.4,73.4,29.80,SE,146,1.0,5.0,51,0.00,,,0.00,LWC2 V0.39 B123,2013-06-10 20:25:00,
2013-06-10 14:30:00,94.6,73.0,29.80,SSW,198,3.0,3.0,50,0.00,,,0.00,LWC2 V0.39 B123,2013-06-10 20:30:00,
2013-06-10 14:35:00,94.8,72.0,29.79,WSW,245,4.0,8.0,48,0.00,,,0.00,LWC2 V0.39 B123,2013-06-10 20:35:00,
2013-06-10 14:40:00,94.8,72.6,29.79,SSW,201,3.0,4.0,49,0.00,,,0.00,LWC2 V0.39 B123,2013-06-10 20:40:00,
2013-06-10 14:45:00,94.7,72.5,29.79,SE,126,4.0,8.0,49,0.00,,,0.00,LWC2 V0.39 B123,2013-06-10 20:45:00,
2013-06-10 14:50:00,94.4,71.6,29.79,SSE,158,3.0,6.0,48,0.00,,,0.00,LWC2 V0.39 B123,2013-06-10 20:50:00,
2013-06-10 14:55:00,94.8,72.6,29.79,West,267,0.0,3.0,49,0.00,,,0.00,LWC2 V0.39 B123,2013-06-10 20:55:00,
2013-06-10 15:00:00,95.2,73.6,29.79,South,184,1.0,5.0,50,0.00,,,0.00,LWC2 V0.39 B123,2013-06-10 21:00:00,
2013-06-10 15:05:00,95.2,72.4,29.79,NW,309,2.0,7.0,48,0.00,,,0.00,LWC2 V0.39 B123,2013-06-10 21:05:00,
2013-06-10 15:10:00,94.8,71.4,29.79,North,351,2.0,8.0,47,0.00,,,0.00,LWC2 V0.39 B123,2013-06-10 21:10:00,
2013-06-10 15:15:00,94.8,71.4,29.78,SW,231,9.0,9.0,47,0.00,,,0.00,LWC2 V0.39 B123,2013-06-10 21:15:00,
2013-06-10 15:20:00,94.6,71.2,29.78,WNW,284,2.0,7.0,47,0.00,,,0.00,LWC2 V0.39 B123,2013-06-10 21:20:00,
2013-06-10 15:25:00,94.6,73.0,29.79,SSW,195,3.0,5.0,50,0.00,,,0.00,LWC2 V0.39 B123,2013-06-10 21:25:00,
2013-06-10 15:30:00,94.9,72.1,29.78,NNW,331,1.0,7.0,48,0.00,,,0.00,LWC2 V0.39 B123,2013-06-10 21:30:00,
2013-06-10 15:35:00,95.1,72.3,29.78,West,281,5.0,5.0,48,0.00,,,0.00,LWC2 V0.39 B123,2013-06-10 21:35:00,
2013-06-10 15:40:00,95.0,72.2,29.78,NNW,344,3.0,5.0,48,0.00,,,0.00,LWC2 V0.39 B123,2013-06-10 21:40:00,
2013-06-10 15:45:00,94.9,72.7,29.78,WNW,286,2.0,5.0,49,0.00,,,0.00,LWC2 V0.39 B123,2013-06-10 21:45:00,
2013-06-10 15:50:00,94.9,71.5,29.78,WSW,252,4.0,10.0,47,0.00,,,0.00,LWC2 V0.39 B123,2013-06-10 21:50:00,
2013-06-10 15:55:00,94.5,71.7,29.78,SSW,207,3.0,6.0,48,0.00,,,0.00,LWC2 V0.39 B123,2013-06-10 21:55:00,
2013-06-10 16:00:00,94.5,72.3,29.78,South,176,2.0,7.0,49,0.00,,,0.00,LWC2 V0.39 B123,2013-06-10 22:00:00,
2013-06-10 16:05:00,94.8,73.8,29.78,WSW,250,2.0,3.0,51,0.00,,,0.00,LWC2 V0.39 B123,2013-06-10 22:05:00,
2013-06-10 16:10:00,94.8,70.7,29.78,NW,305,2.0,4.0,46,0.00,,,0.00,LWC2 V0.39 B123,2013-06-10 22:10:00,
2013-06-10 16:15:00,94.6,71.8,29.78,South,177,2.0,4.0,48,0.00,,,0.00,LWC2 V0.39 B123,2013-06-10 22:15:00,
2013-06-10 16:20:00,94.6,71.8,29.78,SW,233,2.0,5.0,48,0.00,,,0.00,LWC2 V0.39 B123,2013-06-10 22:20:00,
2013-06-10 16:25:00,94.8,71.4,29.78,WNW,283,2.0,7.0,47,0.00,,,0.00,LWC2 V0.39 B123,2013-06-10 22:25:00,
2013-06-10 16:30:00,94.7,71.9,29.78,WNW,300,1.0,5.0,48,0.00,,,0.00,LWC2 V0.39 B123,2013-06-10 22:30:00,
2013-06-10 16:35:00,94.7,71.9,29.78,West,278,2.0,7.0,48,0.00,,,0.00,LWC2 V0.39 B123,2013-06-10 22:35:00,
2013-06-10 16:40:00,94.5,71.7,29.78,SE,135,1.0,3.0,48,0.00,,,0.00,LWC2 V0.39 B123,2013-06-10 22:40:00,
2013-06-10 16:45:00,94.3,72.2,29.78,ESE,106,2.0,6.0,49,0.00,,,0.00,LWC2 V0.39 B123,2013-06-10 22:45:00,
2013-06-10 16:50:00,94.3,70.9,29.78,South,170,3.0,7.0,47,0.00,,,0.00,LWC2 V0.39 B123,2013-06-10 22:50:00,
2013-06-10 16:55:00,94.3,71.5,29.78,SW,235,3.0,5.0,48,0.00,,,0.00,LWC2 V0.39 B123,2013-06-10 22:55:00,
2013-06-10 17:00:00,94.2,72.1,29.78,South,176,0.0,2.0,49,0.00,,,0.00,LWC2 V0.39 B123,2013-06-10 23:00:00,
2013-06-10 17:05:00,94.4,72.2,29.77,SSE,156,0.0,1.0,49,0.00,,,0.00,LWC2 V0.39 B123,2013-06-10 23:05:00,
2013-06-10 17:10:00,94.4,72.2,29.78,SSW,198,2.0,2.0,49,0.00,,,0.00,LWC2 V0.39 B123,2013-06-10 23:10:00,
2013-06-10 17:15:00,94.0,71.9,29.78,SSW,211,2.0,3.0,49,0.00,,,0.00,LWC2 V0.39 B123,2013-06-10 23:15:00,
2013-06-10 17:20:00,94.0,71.3,29.77,WSW,242,3.0,5.0,48,0.00,,,0.00,LWC2 V0.39 B123,2013-06-10 23:20:00,
2013-06-10 17:25:00,93.8,71.7,29.78,SSW,208,1.0,2.0,49,0.00,,,0.00,LWC2 V0.39 B123,2013-06-10 23:25:00,
2013-06-10 17:30:00,93.6,72.7,29.77,SSE,148,0.0,3.0,51,0.00,,,0.00,LWC2 V0.39 B123,2013-06-10 23:30:00,
2013-06-10 17:35:00,93.8,73.5,29.77,SSE,153,2.0,4.0,52,0.00,,,0.00,LWC2 V0.39 B123,2013-06-10 23:35:00,
2013-06-10 17:40:00,93.8,73.5,29.77,WSW,242,1.0,2.0,52,0.00,,,0.00,LWC2 V0.39 B123,2013-06-10 23:40:00,
2013-06-10 17:45:00,93.5,72.6,29.77,SE,143,0.0,5.0,51,0.00,,,0.00,LWC2 V0.39 B123,2013-06-10 23:45:00,
2013-06-10 17:50:00,93.1,72.8,29.77,ESE,111,0.0,5.0,52,0.00,,,0.00,LWC2 V0.39 B123,2013-06-10 23:50:00,
2013-06-10 17:55:00,92.5,71.7,29.77,WNW,295,1.0,3.0,51,0.00,,,0.00,LWC2 V0.39 B123,2013-06-10 23:55:00,
2013-06-10 18:00:00,91.7,72.1,29.77,SSE,156,1.0,3.0,53,0.00,,,0.00,LWC2 V0.39 B123,2013-06-11 00:00:00,
2013-06-10 18:05:00,91.1,72.1,29.77,South,183,0.0,1.0,54,0.00,,,0.00,LWC2 V0.39 B123,2013-06-11 00:05:00,
2013-06-10 18:10:00,90.6,71.6,29.78,NNW,332,1.0,1.0,54,0.00,,,0.00,LWC2 V0.39 B123,2013-06-11 00:10:00,
2013-06-10 18:15:00,90.2,71.3,29.78,South,177,1.0,1.0,54,0.00,,,0.00,LWC2 V0.39 B123,2013-06-11 00:15:00,
2013-06-10 18:20:00,90.0,71.1,29.78,SE,133,1.0,4.0,54,0.00,,,0.00,LWC2 V0.39 B123,2013-06-11 00:20:00,
2013-06-10 18:25:00,89.6,71.8,29.78,SSE,167,1.0,3.0,56,0.00,,,0.00,LWC2 V0.39 B123,2013-06-11 00:25:00,
2013-06-10 18:30:00,89.4,72.1,29.78,SW,233,0.0,3.0,57,0.00,,,0.00,LWC2 V0.39 B123,2013-06-11 00:30:00,
2013-06-10 18:35:00,89.0,71.8,29.78,South,173,0.0,2.0,57,0.00,,,0.00,LWC2 V0.39 B123,2013-06-11 00:35:00,
2013-06-10 18:40:00,88.6,71.9,29.78,SW,217,1.0,4.0,58,0.00,,,0.00,LWC2 V0.39 B123,2013-06-11 00:40:00,
2013-06-10 18:45:00,88.3,71.6,29.78,SSW,212,0.0,3.0,58,0.00,,,0.00,LWC2 V0.39 B123,2013-06-11 00:45:00,
2013-06-10 18:50:00,88.1,71.4,29.78,SSE,148,2.0,3.0,58,0.00,,,0.00,LWC2 V0.39 B123,2013-06-11 00:50:00,
2013-06-10 18:55:00,87.8,71.1,29.78,SE,146,1.0,3.0,58,0.00,,,0.00,LWC2 V0.39 B123,2013-06-11 00:55:00,
2013-06-10 19:00:00,87.5,70.9,29.78,South,171,2.0,2.0,58,0.00,,,0.00,LWC2 V0.39 B123,2013-06-11 01:00:00,
2013-06-10 19:05:00,87.1,71.0,29.78,SE,145,2.0,5.0,59,0.00,,,0.00,LWC2 V0.39 B123,2013-06-11 01:05:00,
2013-06-10 19:10:00,86.9,71.3,29.78,SE,124,1.0,2.0,60,0.00,,,0.00,LWC2 V0.39 B123,2013-06-11 01:10:00,
2013-06-10 19:15:00,86.4,70.8,29.78,SSE,147,1.0,4.0,60,0.00,,,0.00,LWC2 V0.39 B123,2013-06-11 01:15:00,
2013-06-10 19:20:00,86.0,71.0,29.78,SE,146,1.0,3.0,61,0.00,,,0.00,LWC2 V0.39 B123,2013-06-11 01:20:00,
2013-06-10 19:25:00,85.6,70.6,29.78,South,171,3.0,4.0,61,0.00,,,0.00,LWC2 V0.39 B123,2013-06-11 01:25:00,
2013-06-10 19:30:00,85.4,70.4,29.78,SSW,193,2.0,4.0,61,0.00,,,0.00,LWC2 V0.39 B123,2013-06-11 01:30:00,
2013-06-10 19:35:00,85.2,70.2,29.77,SE,125,1.0,4.0,61,0.00,,,0.00,LWC2 V0.39 B123,2013-06-11 01:35:00,
2013-06-10 19:40:00,84.9,70.4,29.77,SSE,148,4.0,4.0,62,0.00,,,0.00,LWC2 V0.39 B123,2013-06-11 01:40:00,
2013-06-10 19:45:00,84.7,70.2,29.77,SE,125,3.0,4.0,62,0.00,,,0.00,LWC2 V0.39 B123,2013-06-11 01:45:00,
2013-06-10 19:50:00,84.6,70.1,29.78,SE,125,2.0,5.0,62,0.00,,,0.00,LWC2 V0.39 B123,2013-06-11 01:50:00,
2013-06-10 19:55:00,84.5,70.0,29.78,South,191,4.0,5.0,62,0.00,,,0.00,LWC2 V0.39 B123,2013-06-11 01:55:00,
2013-06-10 20:00:00,84.5,70.0,29.78,South,174,2.0,4.0,62,0.00,,,0.00,LWC2 V0.39 B123,2013-06-11 02:00:00,
2013-06-10 20:05:00,84.5,70.0,29.78,SSE,163,1.0,3.0,62,0.00,,,0.00,LWC2 V0.39 B123,2013-06-11 02:05:00,
2013-06-10 20:10:00,84.5,70.0,29.78,SSW,211,2.0,4.0,62,0.00,,,0.00,LWC2 V0.39 B123,2013-06-11 02:10:00,
2013-06-10 20:15:00,84.3,69.8,29.78,SSW,194,3.0,6.0,62,0.00,,,0.00,LWC2 V0.39 B123,2013-06-11 02:15:00,
2013-06-10 20:20:00,84.4,69.9,29.78,SSE,157,2.0,9.0,62,0.00,,,0.00,LWC2 V0.39 B123,2013-06-11 02:20:00,
2013-06-10 20:25:00,84.3,69.8,29.78,SSE,166,2.0,3.0,62,0.00,,,0.00,LWC2 V0.39 B123,2013-06-11 02:25:00,
2013-06-10 20:30:00,84.3,69.8,29.78,SW,228,3.0,5.0,62,0.00,,,0.00,LWC2 V0.39 B123,2013-06-11 02:30:00,
2013-06-10 20:35:00,84.3,69.8,29.78,SSW,194,2.0,6.0,62,0.00,,,0.00,LWC2 V0.39 B123,2013-06-11 02:35:00,
2013-06-10 20:40:00,84.2,69.7,29.78,South,172,1.0,3.0,62,0.00,,,0.00,LWC2 V0.39 B123,2013-06-11 02:40:00,
2013-06-10 20:45:00,84.3,69.4,29.79,SW,229,3.0,8.0,61,0.00,,,0.00,LWC2 V0.39 B123,2013-06-11 02:45:00,
2013-06-10 20:50:00,84.3,69.8,29.79,North,350,0.0,4.0,62,0.00,,,0.00,LWC2 V0.39 B123,2013-06-11 02:50:00,
2013-06-10 20:55:00,84.2,69.7,29.79,WSW,238,2.0,3.0,62,0.00,,,0.00,LWC2 V0.39 B123,2013-06-11 02:55:00,
2013-06-10 21:00:00,84.0,69.5,29.80,SW,222,2.0,6.0,62,0.00,,,0.00,LWC2 V0.39 B123,2013-06-11 03:00:00,
2013-06-10 21:05:00,84.0,70.0,29.80,NNW,330,1.0,4.0,63,0.00,,,0.00,LWC2 V0.39 B123,2013-06-11 03:05:00,
2013-06-10 21:10:00,84.0,70.0,29.80,SW,221,4.0,7.0,63,0.00,,,0.00,LWC2 V0.39 B123,2013-06-11 03:10:00,
2013-06-10 21:15:00,83.9,70.4,29.80,SE,128,1.0,6.0,64,0.00,,,0.00,LWC2 V0.39 B123,2013-06-11 03:15:00,
2013-06-10 21:20:00,83.9,70.4,29.80,SW,217,3.0,6.0,64,0.00,,,0.00,LWC2 V0.39 B123,2013-06-11 03:20:00,
2013-06-10 21:25:00,84.0,70.5,29.80,SW,225,4.0,5.0,64,0.00,,,0.00,LWC2 V0.39 B123,2013-06-11 03:25:00,
2013-06-10 21:30:00,83.9,70.4,29.81,SSW,211,2.0,8.0,64,0.00,,,0.00,LWC2 V0.39 B123,2013-06-11 03:30:00,
2013-06-10 21:35:00,83.6,70.6,29.81,WNW,299,4.0,9.0,65,0.00,,,0.00,LWC2 V0.39 B123,2013-06-11 03:35:00,
2013-06-10 21:40:00,83.6,71.0,29.81,West,264,5.0,7.0,66,0.00,,,0.00,LWC2 V0.39 B123,2013-06-11 03:40:00,
2013-06-10 21:45:00,83.4,70.8,29.81,South,177,2.0,8.0,66,0.00,,,0.00,LWC2 V0.39 B123,2013-06-11 03:45:00,
2013-06-10 21:50:00,83.4,70.8,29.81,SW,225,5.0,5.0,66,0.00,,,0.00,LWC2 V0.39 B123,2013-06-11 03:50:00,
2013-06-10 21:55:00,83.2,71.1,29.81,SW,231,6.0,8.0,67,0.00,,,0.00,LWC2 V0.39 B123,2013-06-11 03:55:00,
2013-06-10 22:00:00,83.1,71.0,29.81,South,169,2.0,7.0,67,0.00,,,0.00,LWC2 V0.39 B123,2013-06-11 04:00:00,
2013-06-10 22:01:00,83.1,71.0,29.81,SSW,208,10.0,10.0,67,0.00,,,0.00,LWC2 V0.39 B123,2013-06-11 04:01:00,
2013-06-10 22:02:00,83.0,70.9,29.81,SW,228,3.0,10.0,67,0.00,,,0.00,LWC2 V0.39 B123,2013-06-11 04:02:00,
2013-06-10 22:03:00,83.0,70.9,29.81,SW,221,3.0,7.0,67,0.00,,,0.00,LWC2 V0.39 B123,2013-06-11 04:03:00,
2013-06-10 22:05:00,83.0,71.3,29.81,SSW,197,1.0,9.0,68,0.00,,,0.00,LWC2 V0.39 B123,2013-06-11 04:05:00,
2013-06-10 22:06:00,82.9,70.8,29.81,SW,236,6.0,8.0,67,0.00,,,0.00,LWC2 V0.39 B123,2013-06-11 04:06:00,
2013-06-10 22:11:00,82.9,71.2,29.81,SSW,210,6.0,8.0,68,0.00,,,0.00,LWC2 V0.39 B123,2013-06-11 04:11:00,
2013-06-10 22:16:00,82.8,71.1,29.81,West,273,1.0,10.0,68,0.00,,,0.00,LWC2 V0.39 B123,2013-06-11 04:16:00,
2013-06-10 22:21:00,82.7,71.0,29.81,SW,225,1.0,7.0,68,0.00,,,0.00,LWC2 V0.39 B123,2013-06-11 04:21:00,
2013-06-10 22:26:00,82.6,70.9,29.81,WNW,302,2.0,7.0,68,0.00,,,0.00,LWC2 V0.39 B123,2013-06-11 04:26:00,
2013-06-10 22:31:00,82.5,70.8,29.81,SSW,194,5.0,8.0,68,0.00,,,0.00,LWC2 V0.39 B123,2013-06-11 04:31:00,
2013-06-10 22:36:00,82.4,71.2,29.81,South,184,4.0,8.0,69,0.00,,,0.00,LWC2 V0.39 B123,2013-06-11 04:36:00,
2013-06-10 22:41:00,82.3,71.1,29.81,West,259,1.0,5.0,69,0.00,,,0.00,LWC2 V0.39 B123,2013-06-11 04:41:00,
2013-06-10 22:46:00,82.0,70.8,29.81,SW,232,3.0,6.0,69,0.00,,,0.00,LWC2 V0.39 B123,2013-06-11 04:46:00,
2013-06-10 22:52:00,81.9,71.1,29.81,SW,221,2.0,6.0,70,0.00,,,0.00,LWC2 V0.39 B123,2013-06-11 04:52:00,
2013-06-10 22:57:00,81.8,71.0,29.80,SSW,192,3.0,5.0,70,0.00,,,0.00,LWC2 V0.39 B123,2013-06-11 04:57:00,
2013-06-10 23:03:00,81.8,71.0,29.81,SSW,200,5.0,7.0,70,0.00,,,0.00,LWC2 V0.39 B123,2013-06-11 05:03:00,
2013-06-10 23:08:00,81.8,71.0,29.81,SE,129,1.0,9.0,70,0.00,,,0.00,LWC2 V0.39 B123,2013-06-11 05:08:00,
2013-06-10 23:13:00,81.8,71.0,29.81,SSE,164,5.0,6.0,70,0.00,,,0.00,LWC2 V0.39 B123,2013-06-11 05:13:00,
2013-06-10 23:18:00,81.8,70.6,29.81,WSW,253,3.0,11.0,69,0.00,,,0.00,LWC2 V0.39 B123,2013-06-11 05:18:00,
2013-06-10 23:23:00,81.7,70.5,29.81,South,172,3.0,10.0,69,0.00,,,0.00,LWC2 V0.39 B123,2013-06-11 05:23:00,
2013-06-10 23:28:00,81.6,70.4,29.81,SSW,207,5.0,7.0,69,0.00,,,0.00,LWC2 V0.39 B123,2013-06-11 05:28:00,
2013-06-10 23:33:00,81.5,70.3,29.81,SSE,156,2.0,7.0,69,0.00,,,0.00,LWC2 V0.39 B123,2013-06-11 05:33:00,
2013-06-10 23:38:00,81.4,70.2,29.81,SSE,166,2.0,9.0,69,0.00,,,0.00,LWC2 V0.39 B123,2013-06-11 05:38:00,
2013-06-10 23:43:00,81.4,70.2,29.81,NW,318,8.0,8.0,69,0.00,,,0.00,LWC2 V0.39 B123,2013-06-11 05:43:00,
2013-06-10 23:48:00,81.3,70.1,29.81,West,276,1.0,6.0,69,0.00,,,0.00,LWC2 V0.39 B123,2013-06-11 05:48:00,
2013-06-10 23:53:00,81.2,70.0,29.81,NNW,338,3.0,6.0,69,0.00,,,0.00,LWC2 V0.39 B123,2013-06-11 05:53:00,
2013-06-10 23:58:00,81.2,69.6,29.81,SSW,211,4.0,8.0,68,0.00,,,0.00,LWC2 V0.39 B123,2013-06-11 05:58:00,